Location: Haliburton Scout Reserve
(45.0900°N, 78.3200°W)
Time: 10:17:50
(UTC-05:00)

Altair - Visible Passes

Search period start: 02 December 2023 00:00
Search period end: 12 December 2023 00:00
Orbit: 1501 x 1682 km, 47.2° (Epoch: 02 December)

Date Brightness Start Highest point End Pass type
(mag) Time Alt. Az. Time Alt. Az. Time Alt. Az.
02 Dec 10.3 17:39:02 10° W 17:42:30 13° WSW 17:45:59 10° SW visible
03 Dec 10.0 06:50:23 10° S 06:57:12 22° SE 07:03:51 10° E visible
03 Dec 10.3 17:13:06 10° W 17:17:29 14° SW 17:21:53 10° SSW visible
04 Dec 10.0 06:25:45 10° S 06:32:08 20° SE 06:38:23 10° E visible
05 Dec 10.0 06:01:12 10° SSE 06:07:05 18° SE 06:12:50 10° E visible
06 Dec 10.0 05:36:45 10° SSE 05:42:01 16° SE 05:47:12 10° E visible
07 Dec 10.0 05:12:27 10° SSE 05:16:59 14° SE 05:21:26 10° E visible
08 Dec 10.0 04:48:24 10° SE 04:51:56 12° ESE 04:55:25 10° E visible
08 Dec 8.8 06:45:41 10° SSW 06:54:50 45° SE 07:03:40 10° ENE visible
09 Dec 10.1 04:24:57 10° SE 04:26:54 11° ESE 04:28:50 10° ESE visible
09 Dec 8.8 06:20:40 10° SSW 06:29:42 42° SE 06:38:26 10° ENE visible
10 Dec 8.8 05:55:41 10° SSW 06:04:34 39° SE 06:13:11 10° ENE visible
11 Dec 8.9 05:30:43 10° SSW 05:39:27 37° SE 05:47:55 10° ENE visible
